Regional Weather Roundup
Issued by NWS

Home | Current Version | Previous Version | Graphics & Text | Print | Product List | Glossary On
Versions: 1 2 3 4 5 6 7 8 9 10 11 12 13 14 15 16 17 18 19 20 21 22 23 24 25 26 27 28 29 30 31 32 33 34 35 36 37 38 39 40 41 42 43 44 45 46 47 48 49 50
075
ASUS44 KLIX 180705
RWRLA
LOUISIANA WEATHER ROUNDUP
NATIONAL WEATHER SERVICE NEW ORLEANS LA
100 AM CST THU DEC 18 2014

NOTE: "FAIR" INDICATES FEW OR NO CLOUDS BELOW 12,000 FEET WITH NO
      SIGNIFICANT WEATHER AND/OR OBSTRUCTIONS TO VISIBILITY.
      SKY/WX - SKY CONDITION AND SIGNIFICANT WEATHER.
      TMP - AIR TEMPERATURE.    DP   - DEWPOINT TEMPERATURE.
      RH  - RELATIVE HUMIDITY.  PRES - PRESSURE.
      HX  - HEAT INDEX.         WCI  - WIND CHILL INDEX.

*  THESE STATIONS ARE NOT NWS OR FAA STATIONS AND ARE NOT UNDER
   NWS QUALITY CONTROL.

LAZ040-048-061>063-065-066-069-180800-
SOUTHEAST LOUISIANA

CITY           SKY/WX    TMP DP  RH WIND       PRES   REMARKS
N.O. AUDUBON     N/A     53  44  73 MISG        N/A
N.O. INTL ARPT MOCLDY    50  41  71 E3        30.17S
N.O. LAKEFRONT MOCLDY    55  46  71 E7        30.18F
N.O. DOWNTOWN* FAIR      55  41  58 E5        30.18R
SLIDELL        MOCLDY    44  40  85 CALM      30.16F
BATON ROUGE    PTCLDY    45  41  86 NE5       30.18S
BOOTHVILLE     CLOUDY    55  50  83 NE6       30.18S
BELLE CHASSE   MOCLDY    45  42  89 CALM      30.17S
BOGALUSA*        N/A     42  39  89 CALM      30.19F
GALLIANO*      CLOUDY    55  48  75 MISG      30.17F
NEW ROADS*     FAIR      44  42  90 CALM      30.18S
GONZALES*      FAIR      45  43  95 CALM      30.16F
HAMMOND*       NOT AVBL
HOUMA*         MOCLDY    49  46  92 E3        30.15F
PORT FOURCHON* SUNNY     59  54  82 NE7       30.19F

$$

LAZ041-044-053-054-180800-
SOUTHWEST LOUISIANA

CITY           SKY/WX    TMP DP  RH WIND       PRES   REMARKS
LAKE CHARLES   MOCLDY    52  47  83 E7        30.14F
LAFAYETTE      PTCLDY    48  41  76 CALM      30.17S
PATTERSON      PTCLDY    50  45  81 CALM      30.19R
SALT POINT       N/A     54  48  80 CALM      30.16R
NEW IBERIA     PTCLDY    48  43  82 CALM      30.18S
CHENAULT AIRPK CLOUDY    51  46  85 E6        30.14F

$$

LAZ027-028-180800-
CENTRAL LOUISIANA

CITY           SKY/WX    TMP DP  RH WIND       PRES   REMARKS
FORT POLK      NOT AVBL
ALEXANDRIA INT CLOUDY    49  42  77 CALM      30.16F
ALEXANDRIA     CLOUDY    49  43  80 CALM      30.18S

$$

LAZ001-002-180800-
NORTHWEST LOUISIANA

CITY           SKY/WX    TMP DP  RH WIND       PRES   REMARKS
SHREVEPORT     CLOUDY    45  43  93 E9        30.17F
BARKSDALE AFB  NOT AVBL
DTN SHREVEPORT CLOUDY    44  41  89 NE6       30.19F

$$

LAZ014-016-180800-
NORTHEAST LOUISIANA

CITY           SKY/WX    TMP DP  RH WIND       PRES   REMARKS
MONROE         CLOUDY    46  40  79 NE8       30.22S
TALLULAH       CLOUDY    46  39  76 NE3       30.21S

$$




USA.gov is the U.S. government's official web portal to all federal, state and local government web resources and services.